Location: Newark
(51.1667°N, 71.4333°E)
Time: 22:02:52
(UTC+00:00)

X-37B - Visible Passes

Search period start: 20 September 2020 00:00
Search period end: 30 September 2020 00:00
Orbit: 386 x 387 km, 45.0° (Epoch: 18 September)

Date Brightness Start Highest point End Pass type
(mag) Time Alt. Az. Time Alt. Az. Time Alt. Az.
20 Sep 2.2 00:01:00 13° WSW 00:02:55 22° SSW 00:05:27 10° SE visible
20 Sep 2.2 23:05:11 23° SSE 23:05:11 23° SSE 23:07:13 10° SE visible
21 Sep 2.4 23:41:45 17° SSW 23:42:10 17° SSW 23:44:21 10° SSE visible
22 Sep 3.4 22:46:07 11° SE 22:46:07 11° SE 22:46:19 10° SE visible
